Weather History for Stavropol', Russia

Change the Weather History Date:

Tuesday, October 9, 2012

  Actual Average Record
Temperature  
Mean Temperature 54 °F -  
Max Temperature 59 °F - - ()
Min Temperature 48 °F - - ()
Degree Days  
Heating Degree Days 12    
Growing Degree Days 4 (Base 50)    
Moisture  
Dew Point 50 °F    
Average Humidity 78    
Maximum Humidity 94    
Minimum Humidity 48    
Precipitation  
Precipitation 0.12 in - - ()
Sea Level Pressure  
Sea Level Pressure 29.81 in    
Wind  
Wind Speed 10 mph ()    
Max Wind Speed 27 mph    
Max Gust Speed 31 mph    
Visibility 7.2 miles    
Events Rain    
T = Trace of Precipitation, MM = Missing Value Source: Averaged Metar Reports

Daily Weather History Graph

Daily Weather History Graph

Search for Another Location

Airport:

Trip Planner

Search our weather history database for the weather conditions in past years. The results will help you decide how hot, cold, wet, or windy it might be!

Date:

Astronomy

Oct. 09, 2012 Rise Set
Actual Time 7:19 AM MSK 6:37 PM MSK
Civil Twilight 6:50 AM MSK 7:06 PM MSK
Nautical Twilight 6:16 AM MSK 7:40 PM MSK
Astronomical Twilight 5:42 AM MSK 8:14 PM MSK
Moon 12:18 AM MSK (10/9) 3:06 PM MSK (10/9)
Length of Visible Light 12h 15m
Length of Day
11h 17m
Last Quarter, 40% of the Moon is Illuminated
Oct 9
Last Quarter
Oct 15
New
Oct 22
First Quarter
Oct 29
Full
Nov 7
Last Quarter

Hourly Weather History & Observations

Time (MSK) Temp. Dew Point Humidity Pressure Visibility Wind Dir Wind Speed Gust Speed Precip Events Conditions
12:00 AM 60.8 °F 59.0 °F 94% 29.74 in 6.2 mi West 6.7 mph - N/A Rain Light Rain Showers
12:30 AM 60.8 °F 59.0 °F 94% 29.74 in 6.2 mi WSW 8.9 mph - N/A Rain Light Rain Showers
1:00 AM 60 °F 58 °F 91% 29.70 in 12 mi WNW 4.5 mph - - Rain Light Rain Showers
1:00 AM 60.8 °F 59.0 °F 94% 29.71 in 6.2 mi WNW 6.7 mph - N/A   Overcast
1:30 AM 60.8 °F 59.0 °F 94% 29.71 in 6.2 mi NNW 6.7 mph - N/A   Mostly Cloudy
2:30 AM 60.8 °F 57.2 °F 88% 29.71 in 6.2 mi NW 2.2 mph - N/A   Mostly Cloudy
3:30 AM 57.2 °F 55.4 °F 94% 29.68 in 6.2 mi WSW 6.7 mph - N/A   Scattered Clouds
4:00 AM 60 °F 56 °F 82% 29.69 in 12 mi WNW 6.7 mph - -   Partly Cloudy
4:00 AM 60.8 °F 57.2 °F 88% 29.68 in 6.2 mi NW 6.7 mph - N/A   Mostly Cloudy
4:30 AM 60.8 °F 57.2 °F 88% 29.68 in 6.2 mi NW 11.2 mph 20.1 mph N/A   Mostly Cloudy
5:00 AM 60.8 °F 57.2 °F 88% 29.71 in 6.2 mi NW 11.2 mph 17.9 mph N/A   Mostly Cloudy
5:30 AM 60.8 °F 55.4 °F 82% 29.71 in 6.2 mi WNW 6.7 mph - N/A   Mostly Cloudy
6:00 AM 59.0 °F 55.4 °F 88% 29.71 in 6.2 mi West 6.7 mph - N/A   Overcast
6:30 AM 60.8 °F 53.6 °F 77% 29.71 in 6.2 mi WNW 11.2 mph - N/A   Overcast
7:00 AM 59 °F 52 °F 69% 29.72 in 12 mi West 15.7 mph - - Rain Light Rain Showers
7:00 AM 59.0 °F 51.8 °F 77% 29.71 in 6.2 mi WNW 13.4 mph 22.4 mph N/A Rain Light Rain Showers
7:30 AM 57.2 °F 53.6 °F 88% 29.74 in 6.2 mi WNW 13.4 mph 22.4 mph N/A Rain Light Rain Showers
8:00 AM 57.2 °F 53.6 °F 88% 29.74 in 6.2 mi WNW 13.4 mph 20.1 mph N/A Rain Light Rain Showers
8:30 AM 57.2 °F 53.6 °F 88% 29.74 in 6.2 mi West 11.2 mph - N/A Rain Light Rain Showers
9:00 AM 57.2 °F 55.4 °F 94% 29.74 in 6.2 mi West 11.2 mph - N/A Rain Light Rain Showers
9:30 AM 57.2 °F 55.4 °F 94% 29.74 in 6.2 mi West 8.9 mph - N/A Rain Light Rain Showers
10:00 AM 58 °F 54 °F 82% 29.76 in 12 mi WSW 11.2 mph - - Rain Light Rain Showers
10:00 AM 59.0 °F 55.4 °F 88% 29.77 in 6.2 mi West 11.2 mph - N/A Rain Light Rain Showers
10:30 AM 59.0 °F 55.4 °F 88% 29.77 in 6.2 mi West 11.2 mph 17.9 mph N/A Rain Light Rain Showers
11:00 AM 59.0 °F 55.4 °F 88% 29.80 in 6.2 mi West 11.2 mph 17.9 mph N/A   Overcast
11:30 AM 55.4 °F 53.6 °F 94% 29.80 in 6.2 mi WNW 15.7 mph 22.4 mph N/A   Overcast
12:00 PM 53.6 °F 51.8 °F 94% 29.80 in 6.2 mi WNW 17.9 mph 24.6 mph N/A   Overcast
12:30 PM 53.6 °F 50.0 °F 88% 29.80 in 6.2 mi NW 13.4 mph 20.1 mph N/A   Overcast
1:00 PM 57 °F 49 °F 66% 29.80 in 12 mi WNW 15.7 mph - -   Partly Cloudy
1:00 PM 57.2 °F 50.0 °F 77% 29.80 in 6.2 mi NW 13.4 mph 20.1 mph N/A   Mostly Cloudy
1:30 PM 57.2 °F 48.2 °F 72% 29.80 in 6.2 mi WNW 20.1 mph 26.8 mph N/A   Mostly Cloudy
2:00 PM 59.0 °F 48.2 °F 67% 29.80 in 6.2 mi WNW 15.7 mph 22.4 mph N/A   Mostly Cloudy
2:30 PM 59.0 °F 46.4 °F 63% 29.83 in 6.2 mi West 15.7 mph 22.4 mph N/A   Mostly Cloudy
3:00 PM 57.2 °F 46.4 °F 67% 29.83 in 6.2 mi WNW 22.4 mph 31.3 mph N/A   Mostly Cloudy
3:30 PM 57.2 °F 46.4 °F 67% 29.83 in 6.2 mi WNW 22.4 mph 29.1 mph N/A   Mostly Cloudy
4:00 PM 58 °F 44 °F 48% 29.83 in 12 mi West 26.8 mph - -   Partly Cloudy
4:00 PM 59.0 °F 44.6 °F 59% 29.83 in 6.2 mi WNW 24.6 mph 31.3 mph N/A   Mostly Cloudy
4:30 PM 57.2 °F 44.6 °F 63% 29.86 in 6.2 mi WNW 20.1 mph 26.8 mph N/A   Mostly Cloudy
5:00 PM 57.2 °F 44.6 °F 63% 29.86 in 6.2 mi WNW 20.1 mph 26.8 mph N/A   Mostly Cloudy
5:30 PM 55.4 °F 41.0 °F 58% 29.86 in 6.2 mi WNW 20.1 mph 26.8 mph N/A   Mostly Cloudy
6:00 PM 55.4 °F 41.0 °F 58% 29.89 in 6.2 mi WNW 22.4 mph 29.1 mph N/A   Mostly Cloudy
6:30 PM 53.6 °F 42.8 °F 67% 29.89 in 6.2 mi NW 22.4 mph 29.1 mph N/A   Mostly Cloudy
7:00 PM 53 °F 41 °F 54% 29.92 in 12 mi WNW 11.2 mph - -   Scattered Clouds
7:00 PM 53.6 °F 42.8 °F 67% 29.92 in 6.2 mi NW 11.2 mph 17.9 mph N/A   Mostly Cloudy
7:30 PM 51.8 °F 42.8 °F 71% 29.92 in 6.2 mi WNW 8.9 mph 15.7 mph N/A   Mostly Cloudy
8:00 PM 51.8 °F 42.8 °F 71% 29.92 in - WNW 8.9 mph 15.7 mph N/A   Clear
8:30 PM 50.0 °F 42.8 °F 76% 29.95 in - WNW 11.2 mph - N/A   Clear
9:00 PM 50.0 °F 42.8 °F 76% 29.95 in - WNW 13.4 mph - N/A   Clear
9:30 PM 50.0 °F 42.8 °F 76% 29.95 in - WNW 11.2 mph - N/A   Clear
10:00 PM 49 °F 41 °F 64% 29.98 in 12 mi West 13.4 mph - -   Clear
10:00 PM 50.0 °F 41.0 °F 71% 29.95 in - WNW 11.2 mph 17.9 mph N/A   Clear
10:30 PM 50.0 °F 41.0 °F 71% 29.95 in - WNW 11.2 mph 17.9 mph N/A   Clear
11:00 PM 48.2 °F 41.0 °F 76% 29.98 in - WNW 11.2 mph 17.9 mph N/A   Clear
11:30 PM 48.2 °F 39.2 °F 71% 29.98 in - WNW 8.9 mph 15.7 mph N/A   Clear